Vorticity
-3 1 7 9 6 6 5 3 5 4 1 5 2 0 35 -9 12 3 10 1 -9 20 -2 -0 7 6 8
5 -5 -0 6 9 8 9 7 3 6 6 3 3 4 -8 -5 4 3 -3 2 3 13 20 2 6 7 9
12 13 -7 8 8 11 7 9 10 7 2 4 5 4 7 -2 -7 5 -3 3 1 14 15 7 6 5 7
33 11 8 -4 12 5 11 9 8 6 10 4 5 7 5 4 4 7 10 7 6 15 13 8 7 11 7
53 56 39 6 17 18 13 16 11 10 27 52 3 -2 6 5 12 3 -3 10 12 -7 1 11 19 5 7
30 39 43 51 22 29 24 16 11 17 19 15 9 -2 5 14 7 -1 -10 1 16 6 3 11 31 4 6
25 27 30 30 33 24 31 20 16 21 9 2 -23 5 27 22 -6 25 21 7 12 1 5 11 27 4 6
20 28 25 27 28 29 26 29 26 22 9 7 8 19 -2 -1 41 -0 -4 13 11 -1 3 -5 8 14 7
19 22 23 22 28 29 24 29 29 28 14 3 14 13 -12 11 -5 -4 41 4 1 6 16 -5 2 21 1
14 16 21 22 23 27 26 32 31 31 26 10 11 12 -3 22 21 30 37 10 8 22 9 0 8 2 12
12 16 12 14 28 27 29 29 34 40 29 23 11 11 -4 -21 -9 -29 -36 -8 3 7 -5 15 3 3 9
17 15 13 21 16 13 24 24 45 45 21 35 13 17 2 -21 7 54 42 9 4 -19 13 10 23 1 11
15 16 16 16 15 18 15 21 29 53 30 31 34 11 19 -4 -10 -21 -42 32 4 14 -15 16 4 -1 6
14 16 17 16 16 15 15 16 21 35 46 33 39 26 19 15 -9 -14 17 -18 14 24 18 3 -4 3 -1
11 11 12 16 16 15 14 13 16 23 31 49 34 38 29 16 16 -25 8 -3 -23 -7 20 -4 -15 -14 3
12 10 7 7 11 16 17 14 12 16 24 30 46 37 40 29 22 -2 -31 34 50 -15 3 46 -1 1 -12
15 14 13 14 14 9 8 13 20 15 17 23 34 46 39 47 11 19 11 -32 -14 -90 21 23 -11 22 11
Height
5558 5564 5573 5580 5586 5596 5604 5615 5626 5635 5642 5651 5658 5666 5672 5677 5683 5688 5693 5700 5706 5712 5719 5723 5726 5731 5737
5514 5528 5534 5544 5558 5562 5573 5584 5598 5609 5617 5627 5637 5645 5652 5657 5666 5673 5677 5684 5690 5696 5702 5708 5712 5716 5722
5474 5482 5496 5506 5518 5530 5538 5553 5567 5578 5588 5601 5611 5622 5631 5638 5646 5655 5661 5667 5674 5678 5687 5692 5697 5702 5708
5420 5436 5449 5464 5473 5492 5507 5519 5534 5545 5560 5575 5586 5596 5606 5617 5627 5635 5643 5649 5656 5662 5669 5676 5681 5687 5693
5374 5387 5401 5415 5431 5450 5465 5482 5499 5516 5532 5543 5556 5573 5584 5593 5604 5613 5624 5632 5639 5644 5651 5658 5664 5670 5676
5344 5352 5362 5370 5385 5404 5424 5444 5466 5488 5501 5521 5523 5545 5559 5569 5578 5588 5597 5610 5618 5626 5633 5639 5646 5654 5660
5319 5327 5332 5336 5345 5368 5382 5401 5424 5447 5458 5481 5495 5521 5534 5541 5555 5564 5576 5586 5598 5606 5614 5621 5628 5637 5644
5299 5310 5308 5316 5318 5328 5348 5362 5384 5407 5420 5448 5465 5493 5505 5518 5531 5541 5555 5565 5574 5585 5593 5602 5611 5620 5628
5282 5287 5290 5294 5297 5300 5309 5323 5349 5372 5386 5409 5436 5459 5474 5494 5509 5521 5532 5543 5553 5565 5574 5582 5592 5602 5609
5269 5270 5271 5275 5278 5279 5282 5296 5316 5335 5362 5373 5399 5415 5441 5468 5480 5491 5504 5519 5530 5545 5556 5563 5572 5578 5590
5255 5258 5259 5260 5263 5264 5264 5270 5283 5303 5333 5338 5360 5378 5401 5432 5450 5468 5481 5494 5507 5521 5534 5546 5553 5561 5569
5240 5243 5243 5243 5245 5243 5244 5247 5255 5279 5297 5303 5323 5344 5366 5395 5422 5442 5459 5469 5482 5498 5510 5522 5532 5542 5550
5225 5227 5226 5226 5227 5229 5229 5231 5237 5253 5266 5277 5291 5314 5332 5361 5391 5408 5426 5443 5460 5476 5488 5499 5509 5521 5532
5211 5212 5212 5212 5213 5213 5212 5215 5217 5231 5242 5252 5265 5279 5301 5330 5354 5378 5398 5413 5434 5455 5466 5475 5489 5501 5511
5197 5197 5197 5197 5198 5197 5197 5198 5201 5212 5221 5229 5239 5251 5268 5295 5316 5350 5366 5391 5411 5427 5436 5452 5468 5480 5492
5185 5183 5182 5181 5181 5182 5182 5182 5186 5193 5200 5210 5216 5223 5237 5257 5287 5320 5343 5366 5388 5406 5415 5430 5445 5462 5476
5172 5170 5168 5165 5164 5165 5166 5166 5170 5175 5183 5188 5193 5198 5209 5227 5267 5286 5314 5343 5361 5376 5390 5405 5424 5440 5456